カタログに戻る

COSMOS 1275 DEB

運用中PO
NORAD 13801·DEBRIS·🇷🇺 Russia

打ち上げ Jun 4, 1981 から Plesetsk Cosmodrome

Loading…

次のパス (今後24時間)

TLE

最新Source: Space-Track

元期: Sep 14, 2026, 05:25 UTC

1 13801U 81053GV  26257.22628089  .00001937  00000-0  86996-3 0  9990
2 13801  82.7921 271.6947 0045755  43.9799 316.5009 14.21421047232240

AllMySatでCOSMOS 1275 DEBをリアルタイム追跡

Download on the App Store